DAL46 KJFK-EHAM

Flight info

Callsign DAL46
Flight time N/A
Altitude 37000
Route MERIT DCT HFD DCT PUT DCT WITCH DCT ALLEX DCT YQX DCT ELSIR/M081F380 DCT 50N050W 52N040W 54N030W 55N020W DCT RESNO DCT NETKI/N0463F390 DCT NIBOG DCT BELOX L603 LAMSO
Aircraft A339/H-SADE1E2E3GHIJ3J5M1P2RWXY/LB2D1

Departure

Time 2026-05-04 06:25
Airport John F. Kennedy International Airport (KJFK)

Arrival

Time N/A
Airport Amsterdam Airport Schiphol (EHAM)
Time Latitude Longitude Altitude Speed Heading
2026-05-04 05:41 40.63792 -73.78183 27 ft 0 kts 85°
2026-05-04 06:14 40.63792 -73.78184 26 ft 1 kts 85°
2026-05-04 06:15 40.63791 -73.78215 26 ft 4 kts 86°
2026-05-04 06:15 40.63789 -73.78250 24 ft 3 kts 86°
2026-05-04 06:15 40.63786 -73.78268 24 ft 4 kts 106°
2026-05-04 06:15 40.63791 -73.78289 25 ft 4 kts 180°
2026-05-04 06:16 40.63809 -73.78288 24 ft 4 kts 181°
2026-05-04 06:16 40.63827 -73.78288 26 ft 0 kts 173°
2026-05-04 06:20 40.63820 -73.78287 26 ft 4 kts 173°
2026-05-04 06:20 40.63764 -73.78278 25 ft 11 kts 173°
2026-05-04 06:21 40.63448 -73.78313 27 ft 8 kts 155°
2026-05-04 06:21 40.63415 -73.78254 28 ft 9 kts 125°
2026-05-04 06:22 40.63381 -73.78178 28 ft 10 kts 116°
2026-05-04 06:22 40.63341 -73.78106 27 ft 5 kts 150°
2026-05-04 06:25 40.67077 -73.86422 2659 ft 222 kts 298°
2026-05-04 06:25 40.67887 -73.88146 3266 ft 228 kts 298°
2026-05-04 06:26 40.68735 -73.89973 3732 ft 240 kts 298°
2026-05-04 06:26 40.69604 -73.91874 4429 ft 243 kts 298°
2026-05-04 06:26 40.70663 -73.93590 5076 ft 251 kts 318°
2026-05-04 06:26 40.72270 -73.94572 5835 ft 259 kts 344°
2026-05-04 06:27 40.78916 -73.90370 8625 ft 287 kts 37°
2026-05-04 06:28 40.80421 -73.88604 9357 ft 290 kts 37°
2026-05-04 06:28 40.81923 -73.86835 10053 ft 293 kts 37°
2026-05-04 06:28 40.83492 -73.84989 10368 ft 310 kts 37°
2026-05-04 06:28 40.85158 -73.83040 10553 ft 330 kts 37°
2026-05-04 06:29 40.86926 -73.80983 10827 ft 345 kts 37°
2026-05-04 06:29 40.88738 -73.78875 11408 ft 350 kts 37°
2026-05-04 06:29 40.90565 -73.76739 11946 ft 355 kts 37°
2026-05-04 06:29 40.92404 -73.74582 12486 ft 360 kts 37°
2026-05-04 06:30 40.94286 -73.72365 13047 ft 365 kts 37°
2026-05-04 06:30 40.96197 -73.70108 13599 ft 370 kts 37°
2026-05-04 06:30 40.98129 -73.67823 14132 ft 374 kts 37°
2026-05-04 06:30 41.00075 -73.65518 14693 ft 377 kts 37°
2026-05-04 06:31 41.01917 -73.63330 15201 ft 379 kts 37°
2026-05-04 06:31 41.03799 -73.61094 15734 ft 382 kts 37°
2026-05-04 06:31 41.05785 -73.58730 16275 ft 385 kts 37°
2026-05-04 06:31 41.09611 -73.54160 17308 ft 391 kts 37°
2026-05-04 06:32 41.13593 -73.49398 18348 ft 396 kts 37°
2026-05-04 06:33 41.28220 -73.31825 21789 ft 415 kts 37°
2026-05-04 06:34 41.30369 -73.29235 22283 ft 418 kts 37°
2026-05-04 06:34 41.32529 -73.26632 22781 ft 420 kts 37°
2026-05-04 06:34 41.34703 -73.24011 23301 ft 423 kts 37°
2026-05-04 06:34 41.36894 -73.21372 23742 ft 426 kts 37°
2026-05-04 06:35 41.39103 -73.18710 24161 ft 429 kts 37°
2026-05-04 06:36 41.54352 -72.98817 27017 ft 461 kts 57°
2026-05-04 06:37 41.55836 -72.95009 27386 ft 465 kts 59°
2026-05-04 06:37 41.57319 -72.91157 27771 ft 467 kts 59°
2026-05-04 06:37 41.58808 -72.87285 28148 ft 470 kts 59°
2026-05-04 06:37 41.60307 -72.83383 28520 ft 473 kts 59°
2026-05-04 06:38 41.61814 -72.79459 28876 ft 476 kts 59°
2026-05-04 06:38 41.63325 -72.75515 29231 ft 479 kts 59°
2026-05-04 06:40 41.74211 -72.47249 31344 ft 500 kts 58°
2026-05-04 06:40 41.75828 -72.43111 31624 ft 504 kts 58°
2026-05-04 06:40 41.77464 -72.38944 31916 ft 507 kts 58°
2026-05-04 06:40 41.79112 -72.34762 32187 ft 510 kts 58°
2026-05-04 06:41 41.80776 -72.30558 32432 ft 513 kts 58°
2026-05-04 06:41 41.82457 -72.26326 32676 ft 515 kts 58°
2026-05-04 06:41 41.84151 -72.22075 32870 ft 518 kts 58°
2026-05-04 06:41 41.85276 -72.19258 33017 ft 519 kts 58°
2026-05-04 06:42 41.87186 -72.14492 33197 ft 522 kts 58°
2026-05-04 06:42 41.88913 -72.10192 33377 ft 523 kts 58°
2026-05-04 06:42 41.90618 -72.05956 33529 ft 525 kts 58°
2026-05-04 06:44 42.02896 -71.75742 34789 ft 526 kts 58°
2026-05-04 06:44 42.04659 -71.71433 34958 ft 526 kts 58°
2026-05-04 06:44 42.06429 -71.67112 35137 ft 526 kts 58°
2026-05-04 06:45 42.08193 -71.62814 35300 ft 526 kts 58°
2026-05-04 06:45 42.09972 -71.58486 35463 ft 527 kts 58°